M I D A S
Marine Information and Data Acquisition System
Tripno 1560 of the Zeeleeuw from 2008-09-05 06:16:24 to 2008-09-05 16:24:15
Back to CruiseResearch ActivitiesStationsMapUnderway DataData graphs

EquipmentUnitsComments
TimeDGPSUTC
LatitudeDGPSDM.mWGS84
LongitudeDGPSDM.mWGS84
SpeedMeteo Stationm/sRelative wind speed
DirectionMeteo StationdegRelative wind direction
TemperatureMeteo Stationdeg CelciusAir temperature
PressureMeteo StationPaAtmospheric pressure
HumidityMeteo Station%Relative humidity
Missing or incorrect values are displayed as -999
Metereological data collected by the RV Zeeleeuw from 2008-09-05 06:15:47 to 2008-09-05 16:25:32
                                                                                    Next 1000 lines
Time Latitude Longitude Speed Direction Temperature Pressure Humidity
2008-09-05 06:15:57 51°13.622 2°56.044 -999 -999 -999 -999 -999
2008-09-05 06:16:02 51°13.622 2°56.042 -999 -999 -999 -999 -999
2008-09-05 06:16:07 51°13.623 2°56.039 -999 -999 -999 -999 -999
2008-09-05 06:16:12 51°13.623 2°56.036 -999 -999 -999 -999 -999
2008-09-05 06:16:17 51°13.624 2°56.032 -999 -999 -999 -999 -999
2008-09-05 06:16:22 51°13.625 2°56.028 -999 -999 -999 -999 -999
2008-09-05 06:16:27 51°13.626 2°56.024 -999 -999 -999 -999 -999
2008-09-05 06:16:32 51°13.627 2°56.019 -999 -999 -999 -999 -999
2008-09-05 06:16:37 51°13.628 2°56.014 -999 -999 -999 -999 -999
2008-09-05 06:16:42 51°13.629 2°56.008 -999 -999 -999 -999 -999
2008-09-05 06:16:47 51°13.631 2°56.002 -999 -999 -999 -999 -999
2008-09-05 06:16:52 51°13.632 2°55.996 -999 -999 -999 -999 -999
2008-09-05 06:16:57 51°13.633 2°55.99 -999 -999 -999 -999 -999
2008-09-05 06:17:02 51°13.635 2°55.983 -999 -999 -999 -999 -999
2008-09-05 06:17:07 51°13.637 2°55.975 -999 -999 -999 -999 -999
2008-09-05 06:17:12 51°13.639 2°55.968 -999 -999 -999 -999 -999
2008-09-05 06:17:17 51°13.641 2°55.959 -999 -999 -999 -999 -999
2008-09-05 06:17:22 51°13.644 2°55.951 -999 -999 -999 -999 -999
2008-09-05 06:17:27 51°13.646 2°55.943 -999 -999 -999 -999 -999
2008-09-05 06:17:32 51°13.649 2°55.934 -999 -999 -999 -999 -999
2008-09-05 06:17:37 51°13.651 2°55.925 -999 -999 -999 -999 -999
2008-09-05 06:17:42 51°13.654 2°55.916 -999 -999 -999 -999 -999
2008-09-05 06:17:47 51°13.657 2°55.907 -999 -999 -999 -999 -999
2008-09-05 06:17:52 51°13.659 2°55.898 -999 -999 -999 -999 -999
2008-09-05 06:17:57 51°13.662 2°55.889 -999 -999 -999 -999 -999
2008-09-05 06:18:02 51°13.665 2°55.88 -999 -999 -999 -999 -999
2008-09-05 06:18:07 51°13.668 2°55.871 -999 -999 -999 -999 -999
2008-09-05 06:18:12 51°13.67 2°55.862 -999 -999 -999 -999 -999
2008-09-05 06:18:17 51°13.672 2°55.854 -999 -999 -999 -999 -999
2008-09-05 06:18:22 51°13.674 2°55.845 -999 -999 -999 -999 -999
2008-09-05 06:18:27 51°13.676 2°55.837 -999 -999 -999 -999 -999
2008-09-05 06:18:32 51°13.678 2°55.829 -999 -999 -999 -999 -999
2008-09-05 06:18:37 51°13.68 2°55.821 -999 -999 -999 -999 -999
2008-09-05 06:18:42 51°13.682 2°55.814 -999 -999 -999 -999 -999
2008-09-05 06:18:47 51°13.684 2°55.806 -999 -999 -999 -999 -999
2008-09-05 06:18:52 51°13.685 2°55.799 -999 -999 -999 -999 -999
2008-09-05 06:18:57 51°13.686 2°55.791 -999 -999 -999 -999 -999
2008-09-05 06:19:02 51°13.688 2°55.784 -999 -999 -999 -999 -999
2008-09-05 06:19:07 51°13.689 2°55.777 -999 -999 -999 -999 -999
2008-09-05 06:19:12 51°13.689 2°55.77 -999 -999 -999 -999 -999
2008-09-05 06:19:17 51°13.69 2°55.763 -999 -999 -999 -999 -999
2008-09-05 06:19:22 51°13.69 2°55.757 -999 -999 -999 -999 -999
2008-09-05 06:19:27 51°13.69 2°55.751 -999 -999 -999 -999 -999
2008-09-05 06:19:32 51°13.691 2°55.745 -999 -999 -999 -999 -999
2008-09-05 06:19:37 51°13.691 2°55.739 -999 -999 -999 -999 -999
2008-09-05 06:19:42 51°13.69 2°55.734 -999 -999 -999 -999 -999
2008-09-05 06:19:47 51°13.69 2°55.73 -999 -999 -999 -999 -999
2008-09-05 06:19:52 51°13.69 2°55.726 -999 -999 -999 -999 -999
2008-09-05 06:19:57 51°13.69 2°55.723 -999 -999 -999 -999 -999
2008-09-05 06:20:02 51°13.69 2°55.72 -999 -999 -999 -999 -999
2008-09-05 06:20:07 51°13.69 2°55.718 -999 -999 -999 -999 -999
2008-09-05 06:20:12 51°13.69 2°55.716 -999 -999 -999 -999 -999
2008-09-05 06:20:17 51°13.69 2°55.715 -999 -999 -999 -999 -999
2008-09-05 06:20:22 51°13.691 2°55.715 -999 -999 -999 -999 -999
2008-09-05 06:20:27 51°13.691 2°55.715 -999 -999 -999 -999 -999
2008-09-05 06:20:32 51°13.692 2°55.715 -999 -999 -999 -999 -999
2008-09-05 06:20:37 51°13.693 2°55.716 -999 -999 -999 -999 -999
2008-09-05 06:20:42 51°13.694 2°55.717 -999 -999 -999 -999 -999
2008-09-05 06:20:47 51°13.695 2°55.719 -999 -999 -999 -999 -999
2008-09-05 06:20:52 51°13.697 2°55.72 -999 -999 -999 -999 -999
2008-09-05 06:20:57 51°13.699 2°55.722 -999 -999 -999 -999 -999
2008-09-05 06:21:02 51°13.701 2°55.724 -999 -999 -999 -999 -999
2008-09-05 06:21:07 51°13.704 2°55.726 -999 -999 -999 -999 -999
2008-09-05 06:21:12 51°13.707 2°55.727 -999 -999 -999 -999 -999
2008-09-05 06:21:17 51°13.711 2°55.728 -999 -999 -999 -999 -999
2008-09-05 06:21:22 51°13.715 2°55.729 -999 -999 -999 -999 -999
2008-09-05 06:21:27 51°13.72 2°55.728 -999 -999 -999 -999 -999
2008-09-05 06:21:32 51°13.725 2°55.726 -999 -999 -999 -999 -999
2008-09-05 06:21:37 51°13.73 2°55.724 -999 -999 -999 -999 -999
2008-09-05 06:21:42 51°13.736 2°55.72 -999 -999 -999 -999 -999
2008-09-05 06:21:47 51°13.743 2°55.715 -999 -999 -999 -999 -999
2008-09-05 06:21:52 51°13.749 2°55.709 -999 -999 -999 -999 -999
2008-09-05 06:21:57 51°13.757 2°55.702 -999 -999 -999 -999 -999
2008-09-05 06:22:02 51°13.764 2°55.695 -999 -999 -999 -999 -999
2008-09-05 06:22:07 51°13.772 2°55.688 -999 -999 -999 -999 -999
2008-09-05 06:22:12 51°13.78 2°55.68 -999 -999 -999 -999 -999
2008-09-05 06:22:17 51°13.789 2°55.672 -999 -999 -999 -999 -999
2008-09-05 06:22:22 51°13.798 2°55.665 -999 -999 -999 -999 -999
2008-09-05 06:22:27 51°13.807 2°55.656 -999 -999 -999 -999 -999
2008-09-05 06:22:32 51°13.816 2°55.649 -999 -999 -999 -999 -999
2008-09-05 06:22:36 51°13.824 2°55.643 -999 -999 -999 -999 -999
2008-09-05 06:22:36 51°13.824 2°55.643 -999 -999 -999 -999 -999
2008-09-05 06:22:47 51°13.846 2°55.625 -999 -999 -999 -999 -999
2008-09-05 06:22:52 51°13.857 2°55.617 -999 -999 -999 -999 -999
2008-09-05 06:22:57 51°13.867 2°55.61 -999 -999 -999 -999 -999
2008-09-05 06:23:02 51°13.878 2°55.602 -999 -999 -999 -999 -999
2008-09-05 06:23:05 51°13.884 2°55.598 -999 -999 -999 -999 -999
2008-09-05 06:23:12 51°13.899 2°55.588 -999 -999 -999 -999 -999
2008-09-05 06:23:17 51°13.91 2°55.58 -999 -999 -999 -999 -999
2008-09-05 06:23:22 51°13.921 2°55.572 -999 -999 -999 -999 -999
2008-09-05 06:23:27 51°13.932 2°55.565 -999 -999 -999 -999 -999
2008-09-05 06:23:32 51°13.942 2°55.557 -999 -999 -999 -999 -999
2008-09-05 06:23:37 51°13.953 2°55.549 -999 -999 -999 -999 -999
2008-09-05 06:23:42 51°13.964 2°55.541 -999 -999 -999 -999 -999
2008-09-05 06:23:47 51°13.975 2°55.533 -999 -999 -999 -999 -999
2008-09-05 06:23:52 51°13.986 2°55.525 -999 -999 -999 -999 -999
2008-09-05 06:23:57 51°13.997 2°55.518 -999 -999 -999 -999 -999
2008-09-05 06:24:02 51°14.008 2°55.509 -999 -999 -999 -999 -999
2008-09-05 06:24:07 51°14.019 2°55.501 -999 -999 -999 -999 -999
2008-09-05 06:24:12 51°14.03 2°55.492 -999 -999 -999 -999 -999
2008-09-05 06:24:17 51°14.041 2°55.484 -999 -999 -999 -999 -999
2008-09-05 06:24:22 51°14.051 2°55.475 -999 -999 -999 -999 -999
2008-09-05 06:24:27 51°14.062 2°55.466 -999 -999 -999 -999 -999
2008-09-05 06:24:32 51°14.073 2°55.457 -999 -999 -999 -999 -999
2008-09-05 06:24:37 51°14.084 2°55.448 -999 -999 -999 -999 -999
2008-09-05 06:24:42 51°14.095 2°55.439 -999 -999 -999 -999 -999
2008-09-05 06:24:47 51°14.106 2°55.43 -999 -999 -999 -999 -999
2008-09-05 06:24:52 51°14.117 2°55.421 -999 -999 -999 -999 -999
2008-09-05 06:24:57 51°14.128 2°55.412 -999 -999 -999 -999 -999
2008-09-05 06:25:02 51°14.139 2°55.402 -999 -999 -999 -999 -999
2008-09-05 06:25:07 51°14.15 2°55.392 -999 -999 -999 -999 -999
2008-09-05 06:25:12 51°14.16 2°55.381 -999 -999 -999 -999 -999
2008-09-05 06:25:17 51°14.17 2°55.37 -999 -999 -999 -999 -999
2008-09-05 06:25:22 51°14.181 2°55.359 -999 -999 -999 -999 -999
2008-09-05 06:25:27 51°14.191 2°55.347 -999 -999 -999 -999 -999
2008-09-05 06:25:32 51°14.201 2°55.335 -999 -999 -999 -999 -999
2008-09-05 06:25:37 51°14.21 2°55.322 -999 -999 -999 -999 -999
2008-09-05 06:25:42 51°14.22 2°55.309 -999 -999 -999 -999 -999
2008-09-05 06:25:47 51°14.229 2°55.295 -999 -999 -999 -999 -999
2008-09-05 06:25:52 51°14.238 2°55.282 -999 -999 -999 -999 -999
2008-09-05 06:25:57 51°14.247 2°55.267 -999 -999 -999 -999 -999
2008-09-05 06:26:02 51°14.256 2°55.253 -999 -999 -999 -999 -999
2008-09-05 06:26:07 51°14.265 2°55.238 -999 -999 -999 -999 -999
2008-09-05 06:26:12 51°14.274 2°55.224 -999 -999 -999 -999 -999
2008-09-05 06:26:17 51°14.282 2°55.209 -999 -999 -999 -999 -999
2008-09-05 06:26:22 51°14.291 2°55.193 -999 -999 -999 -999 -999
2008-09-05 06:26:27 51°14.299 2°55.178 -999 -999 -999 -999 -999
2008-09-05 06:26:32 51°14.308 2°55.162 -999 -999 -999 -999 -999
2008-09-05 06:26:37 51°14.316 2°55.146 -999 -999 -999 -999 -999
2008-09-05 06:26:42 51°14.324 2°55.13 -999 -999 -999 -999 -999
2008-09-05 06:26:47 51°14.332 2°55.114 -999 -999 -999 -999 -999
2008-09-05 06:26:52 51°14.34 2°55.098 -999 -999 -999 -999 -999
2008-09-05 06:26:57 51°14.348 2°55.082 -999 -999 -999 -999 -999
2008-09-05 06:27:02 51°14.355 2°55.065 -999 -999 -999 -999 -999
2008-09-05 06:27:07 51°14.363 2°55.048 -999 -999 -999 -999 -999
2008-09-05 06:27:12 51°14.371 2°55.031 -999 -999 -999 -999 -999
2008-09-05 06:27:17 51°14.378 2°55.014 -999 -999 -999 -999 -999
2008-09-05 06:27:22 51°14.385 2°54.996 -999 -999 -999 -999 -999
2008-09-05 06:27:27 51°14.392 2°54.978 -999 -999 -999 -999 -999
2008-09-05 06:27:32 51°14.399 2°54.96 -999 -999 -999 -999 -999
2008-09-05 06:27:37 51°14.405 2°54.941 -999 -999 -999 -999 -999
2008-09-05 06:27:42 51°14.413 2°54.923 -999 -999 -999 -999 -999
2008-09-05 06:27:47 51°14.421 2°54.905 -999 -999 -999 -999 -999
2008-09-05 06:27:52 51°14.43 2°54.887 -999 -999 -999 -999 -999
2008-09-05 06:27:57 51°14.439 2°54.87 -999 -999 -999 -999 -999
2008-09-05 06:28:02 51°14.448 2°54.854 -999 -999 -999 -999 -999
2008-09-05 06:28:07 51°14.458 2°54.838 -999 -999 -999 -999 -999
2008-09-05 06:28:12 51°14.468 2°54.823 -999 -999 -999 -999 -999
2008-09-05 06:28:17 51°14.478 2°54.808 -999 -999 -999 -999 -999
2008-09-05 06:28:22 51°14.489 2°54.793 -999 -999 -999 -999 -999
2008-09-05 06:28:27 51°14.5 2°54.778 -999 -999 -999 -999 -999
2008-09-05 06:28:32 51°14.511 2°54.764 -999 -999 -999 -999 -999
2008-09-05 06:28:37 51°14.522 2°54.749 -999 -999 -999 -999 -999
2008-09-05 06:28:42 51°14.533 2°54.735 -999 -999 -999 -999 -999
2008-09-05 06:28:47 51°14.545 2°54.721 -999 -999 -999 -999 -999
2008-09-05 06:28:52 51°14.556 2°54.707 -999 -999 -999 -999 -999
2008-09-05 06:28:57 51°14.567 2°54.694 -999 -999 -999 -999 -999
2008-09-05 06:29:02 51°14.579 2°54.68 -999 -999 -999 -999 -999
2008-09-05 06:29:07 51°14.591 2°54.668 -999 -999 -999 -999 -999
2008-09-05 06:29:12 51°14.603 2°54.655 -999 -999 -999 -999 -999
2008-09-05 06:29:17 51°14.615 2°54.642 -999 -999 -999 -999 -999
2008-09-05 06:29:22 51°14.627 2°54.63 -999 -999 -999 -999 -999
2008-09-05 06:29:27 51°14.64 2°54.619 -999 -999 -999 -999 -999
2008-09-05 06:29:32 51°14.652 2°54.607 -999 -999 -999 -999 -999
2008-09-05 06:29:37 51°14.664 2°54.595 -999 -999 -999 -999 -999
2008-09-05 06:29:42 51°14.677 2°54.584 -999 -999 -999 -999 -999
2008-09-05 06:29:47 51°14.689 2°54.572 -999 -999 -999 -999 -999
2008-09-05 06:29:52 51°14.702 2°54.56 -999 -999 -999 -999 -999
2008-09-05 06:29:57 51°14.714 2°54.549 -999 -999 -999 -999 -999
2008-09-05 06:30:02 51°14.726 2°54.537 -999 -999 -999 -999 -999
2008-09-05 06:30:07 51°14.738 2°54.524 -999 -999 -999 -999 -999
2008-09-05 06:30:12 51°14.75 2°54.512 -999 -999 -999 -999 -999
2008-09-05 06:30:17 51°14.763 2°54.501 -999 -999 -999 -999 -999
2008-09-05 06:30:22 51°14.775 2°54.489 -999 -999 -999 -999 -999
2008-09-05 06:30:27 51°14.787 2°54.477 -999 -999 -999 -999 -999
2008-09-05 06:30:32 51°14.8 2°54.465 -999 -999 -999 -999 -999
2008-09-05 06:30:37 51°14.813 2°54.453 -999 -999 -999 -999 -999
2008-09-05 06:30:42 51°14.826 2°54.442 -999 -999 -999 -999 -999
2008-09-05 06:30:47 51°14.838 2°54.43 -999 -999 -999 -999 -999
2008-09-05 06:30:52 51°14.852 2°54.419 -999 -999 -999 -999 -999
2008-09-05 06:30:57 51°14.865 2°54.407 -999 -999 -999 -999 -999
2008-09-05 06:31:02 51°14.877 2°54.395 -999 -999 -999 -999 -999
2008-09-05 06:31:07 51°14.89 2°54.382 -999 -999 -999 -999 -999
2008-09-05 06:31:12 51°14.904 2°54.37 -999 -999 -999 -999 -999
2008-09-05 06:31:17 51°14.917 2°54.358 -999 -999 -999 -999 -999
2008-09-05 06:31:22 51°14.93 2°54.345 -999 -999 -999 -999 -999
2008-09-05 06:31:27 51°14.943 2°54.333 -999 -999 -999 -999 -999
2008-09-05 06:31:32 51°14.957 2°54.321 -999 -999 -999 -999 -999
2008-09-05 06:31:37 51°14.97 2°54.309 -999 -999 -999 -999 -999
2008-09-05 06:31:42 51°14.984 2°54.297 -999 -999 -999 -999 -999
2008-09-05 06:31:47 51°14.997 2°54.285 -999 -999 -999 -999 -999
2008-09-05 06:31:52 51°15.011 2°54.273 -999 -999 -999 -999 -999
2008-09-05 06:31:57 51°15.025 2°54.261 -999 -999 -999 -999 -999
2008-09-05 06:32:02 51°15.039 2°54.249 -999 -999 -999 -999 -999
2008-09-05 06:32:07 51°15.053 2°54.237 -999 -999 -999 -999 -999
2008-09-05 06:32:12 51°15.067 2°54.225 -999 -999 -999 -999 -999
2008-09-05 06:32:17 51°15.08 2°54.213 -999 -999 -999 -999 -999
2008-09-05 06:32:22 51°15.094 2°54.201 -999 -999 -999 -999 -999
2008-09-05 06:32:27 51°15.108 2°54.188 -999 -999 -999 -999 -999
2008-09-05 06:32:32 51°15.122 2°54.176 -999 -999 -999 -999 -999
2008-09-05 06:32:37 51°15.136 2°54.164 -999 -999 -999 -999 -999
2008-09-05 06:32:42 51°15.151 2°54.152 -999 -999 -999 -999 -999
2008-09-05 06:32:47 51°15.165 2°54.14 -999 -999 -999 -999 -999
2008-09-05 06:32:52 51°15.179 2°54.128 -999 -999 -999 -999 -999
2008-09-05 06:32:57 51°15.194 2°54.116 -999 -999 -999 -999 -999
2008-09-05 06:33:02 51°15.208 2°54.104 -999 -999 -999 -999 -999
2008-09-05 06:33:07 51°15.222 2°54.091 -999 -999 -999 -999 -999
2008-09-05 06:33:12 51°15.236 2°54.079 -999 -999 -999 -999 -999
2008-09-05 06:33:17 51°15.251 2°54.066 -999 -999 -999 -999 -999
2008-09-05 06:33:22 51°15.265 2°54.054 -999 -999 -999 -999 -999
2008-09-05 06:33:27 51°15.279 2°54.041 -999 -999 -999 -999 -999
2008-09-05 06:33:32 51°15.294 2°54.029 -999 -999 -999 -999 -999
2008-09-05 06:33:37 51°15.308 2°54.016 -999 -999 -999 -999 -999
2008-09-05 06:33:42 51°15.322 2°54.004 -999 -999 -999 -999 -999
2008-09-05 06:33:47 51°15.336 2°53.991 -999 -999 -999 -999 -999
2008-09-05 06:33:52 51°15.351 2°53.979 -999 -999 -999 -999 -999
2008-09-05 06:33:57 51°15.365 2°53.966 -999 -999 -999 -999 -999
2008-09-05 06:34:02 51°15.379 2°53.954 -999 -999 -999 -999 -999
2008-09-05 06:34:07 51°15.394 2°53.941 -999 -999 -999 -999 -999
2008-09-05 06:34:12 51°15.408 2°53.928 -999 -999 -999 -999 -999
2008-09-05 06:34:17 51°15.423 2°53.915 -999 -999 -999 -999 -999
2008-09-05 06:34:22 51°15.437 2°53.902 -999 -999 -999 -999 -999
2008-09-05 06:34:27 51°15.452 2°53.889 -999 -999 -999 -999 -999
2008-09-05 06:34:32 51°15.467 2°53.876 -999 -999 -999 -999 -999
2008-09-05 06:34:37 51°15.482 2°53.863 -999 -999 -999 -999 -999
2008-09-05 06:34:42 51°15.496 2°53.85 -999 -999 -999 -999 -999
2008-09-05 06:34:47 51°15.511 2°53.837 -999 -999 -999 -999 -999
2008-09-05 06:34:52 51°15.526 2°53.823 -999 -999 -999 -999 -999
2008-09-05 06:34:57 51°15.54 2°53.81 -999 -999 -999 -999 -999
2008-09-05 06:35:02 51°15.555 2°53.797 -999 -999 -999 -999 -999
2008-09-05 06:35:07 51°15.57 2°53.784 -999 -999 -999 -999 -999
2008-09-05 06:35:12 51°15.585 2°53.771 -999 -999 -999 -999 -999
2008-09-05 06:35:17 51°15.6 2°53.758 -999 -999 -999 -999 -999
2008-09-05 06:35:22 51°15.615 2°53.745 -999 -999 -999 -999 -999
2008-09-05 06:35:27 51°15.63 2°53.732 -999 -999 -999 -999 -999
2008-09-05 06:35:32 51°15.644 2°53.719 -999 -999 -999 -999 -999
2008-09-05 06:35:37 51°15.659 2°53.706 -999 -999 -999 -999 -999
2008-09-05 06:35:42 51°15.674 2°53.693 -999 -999 -999 -999 -999
2008-09-05 06:35:47 51°15.689 2°53.68 -999 -999 -999 -999 -999
2008-09-05 06:35:52 51°15.704 2°53.667 -999 -999 -999 -999 -999
2008-09-05 06:35:57 51°15.719 2°53.654 -999 -999 -999 -999 -999
2008-09-05 06:36:02 51°15.734 2°53.641 -999 -999 -999 -999 -999
2008-09-05 06:36:07 51°15.748 2°53.627 -999 -999 -999 -999 -999
2008-09-05 06:36:12 51°15.763 2°53.613 -999 -999 -999 -999 -999
2008-09-05 06:36:17 51°15.778 2°53.6 -999 -999 -999 -999 -999
2008-09-05 06:36:22 51°15.793 2°53.586 -999 -999 -999 -999 -999
2008-09-05 06:36:27 51°15.808 2°53.573 -999 -999 -999 -999 -999
2008-09-05 06:36:32 51°15.822 2°53.56 -999 -999 -999 -999 -999
2008-09-05 06:36:37 51°15.837 2°53.546 -999 -999 -999 -999 -999
2008-09-05 06:36:42 51°15.852 2°53.532 -999 -999 -999 -999 -999
2008-09-05 06:36:47 51°15.867 2°53.518 -999 -999 -999 -999 -999
2008-09-05 06:36:52 51°15.881 2°53.505 -999 -999 -999 -999 -999
2008-09-05 06:36:57 51°15.895 2°53.49 -999 -999 -999 -999 -999
2008-09-05 06:37:02 51°15.91 2°53.476 -999 -999 -999 -999 -999
2008-09-05 06:37:07 51°15.924 2°53.461 -999 -999 -999 -999 -999
2008-09-05 06:37:12 51°15.939 2°53.447 -999 -999 -999 -999 -999
2008-09-05 06:37:17 51°15.953 2°53.432 -999 -999 -999 -999 -999
2008-09-05 06:37:22 51°15.968 2°53.418 -999 -999 -999 -999 -999
2008-09-05 06:37:27 51°15.983 2°53.405 -999 -999 -999 -999 -999
2008-09-05 06:37:32 51°15.998 2°53.393 -999 -999 -999 -999 -999
2008-09-05 06:37:37 51°16.013 2°53.38 -999 -999 -999 -999 -999
2008-09-05 06:37:42 51°16.028 2°53.369 -999 -999 -999 -999 -999
2008-09-05 06:37:47 51°16.044 2°53.357 -999 -999 -999 -999 -999
2008-09-05 06:37:52 51°16.059 2°53.345 -999 -999 -999 -999 -999
2008-09-05 06:37:57 51°16.075 2°53.334 -999 -999 -999 -999 -999
2008-09-05 06:38:02 51°16.09 2°53.323 -999 -999 -999 -999 -999
2008-09-05 06:38:07 51°16.105 2°53.311 -999 -999 -999 -999 -999
2008-09-05 06:38:12 51°16.121 2°53.299 -999 -999 -999 -999 -999
2008-09-05 06:38:17 51°16.136 2°53.287 -999 -999 -999 -999 -999
2008-09-05 06:38:22 51°16.151 2°53.275 -999 -999 -999 -999 -999
2008-09-05 06:38:27 51°16.166 2°53.263 -999 -999 -999 -999 -999
2008-09-05 06:38:32 51°16.181 2°53.251 -999 -999 -999 -999 -999
2008-09-05 06:38:37 51°16.197 2°53.238 -999 -999 -999 -999 -999
2008-09-05 06:38:42 51°16.212 2°53.226 -999 -999 -999 -999 -999
2008-09-05 06:38:47 51°16.227 2°53.214 -999 -999 -999 -999 -999
2008-09-05 06:38:52 51°16.242 2°53.202 -999 -999 -999 -999 -999
2008-09-05 06:38:57 51°16.257 2°53.19 -999 -999 -999 -999 -999
2008-09-05 06:39:02 51°16.272 2°53.177 -999 -999 -999 -999 -999
2008-09-05 06:39:07 51°16.287 2°53.165 -999 -999 -999 -999 -999
2008-09-05 06:39:12 51°16.303 2°53.153 -999 -999 -999 -999 -999
2008-09-05 06:39:17 51°16.318 2°53.141 -999 -999 -999 -999 -999
2008-09-05 06:39:22 51°16.333 2°53.129 -999 -999 -999 -999 -999
2008-09-05 06:39:27 51°16.349 2°53.117 -999 -999 -999 -999 -999
2008-09-05 06:39:32 51°16.364 2°53.105 -999 -999 -999 -999 -999
2008-09-05 06:39:37 51°16.379 2°53.093 -999 -999 -999 -999 -999
2008-09-05 06:39:42 51°16.395 2°53.081 -999 -999 -999 -999 -999
2008-09-05 06:39:47 51°16.41 2°53.07 -999 -999 -999 -999 -999
2008-09-05 06:39:52 51°16.426 2°53.059 -999 -999 -999 -999 -999
2008-09-05 06:39:57 51°16.442 2°53.048 -999 -999 -999 -999 -999
2008-09-05 06:40:02 51°16.458 2°53.038 -999 -999 -999 -999 -999
2008-09-05 06:40:07 51°16.473 2°53.027 -999 -999 -999 -999 -999
2008-09-05 06:40:12 51°16.489 2°53.016 -999 -999 -999 -999 -999
2008-09-05 06:40:17 51°16.505 2°53.006 -999 -999 -999 -999 -999
2008-09-05 06:40:22 51°16.52 2°52.995 -999 -999 -999 -999 -999
2008-09-05 06:40:27 51°16.536 2°52.984 -999 -999 -999 -999 -999
2008-09-05 06:40:32 51°16.551 2°52.972 -999 -999 -999 -999 -999
2008-09-05 06:40:37 51°16.567 2°52.961 -999 -999 -999 -999 -999
2008-09-05 06:40:42 51°16.582 2°52.95 -999 -999 -999 -999 -999
2008-09-05 06:40:47 51°16.598 2°52.938 -999 -999 -999 -999 -999
2008-09-05 06:40:52 51°16.613 2°52.928 -999 -999 -999 -999 -999
2008-09-05 06:40:57 51°16.629 2°52.917 -999 -999 -999 -999 -999
2008-09-05 06:41:02 51°16.645 2°52.907 -999 -999 -999 -999 -999
2008-09-05 06:41:07 51°16.66 2°52.896 -999 -999 -999 -999 -999
2008-09-05 06:41:12 51°16.676 2°52.884 -999 -999 -999 -999 -999
2008-09-05 06:41:17 51°16.691 2°52.872 -999 -999 -999 -999 -999
2008-09-05 06:41:22 51°16.706 2°52.86 -999 -999 -999 -999 -999
2008-09-05 06:41:27 51°16.722 2°52.847 -999 -999 -999 -999 -999
2008-09-05 06:41:32 51°16.737 2°52.835 -999 -999 -999 -999 -999
2008-09-05 06:41:37 51°16.752 2°52.823 -999 -999 -999 -999 -999
2008-09-05 06:41:42 51°16.767 2°52.811 -999 -999 -999 -999 -999
2008-09-05 06:41:47 51°16.782 2°52.799 -999 -999 -999 -999 -999
2008-09-05 06:41:52 51°16.798 2°52.787 -999 -999 -999 -999 -999
2008-09-05 06:41:57 51°16.813 2°52.775 -999 -999 -999 -999 -999
2008-09-05 06:42:02 51°16.828 2°52.763 -999 -999 -999 -999 -999
2008-09-05 06:42:07 51°16.844 2°52.752 -999 -999 -999 -999 -999
2008-09-05 06:42:12 51°16.859 2°52.74 -999 -999 -999 -999 -999
2008-09-05 06:42:17 51°16.874 2°52.728 -999 -999 -999 -999 -999
2008-09-05 06:42:22 51°16.89 2°52.716 -999 -999 -999 -999 -999
2008-09-05 06:42:27 51°16.905 2°52.704 -999 -999 -999 -999 -999
2008-09-05 06:42:32 51°16.92 2°52.692 -999 -999 -999 -999 -999
2008-09-05 06:42:37 51°16.936 2°52.68 -999 -999 -999 -999 -999
2008-09-05 06:42:42 51°16.952 2°52.668 -999 -999 -999 -999 -999
2008-09-05 06:42:47 51°16.967 2°52.657 -999 -999 -999 -999 -999
2008-09-05 06:42:52 51°16.983 2°52.644 -999 -999 -999 -999 -999
2008-09-05 06:42:57 51°16.998 2°52.633 -999 -999 -999 -999 -999
2008-09-05 06:43:02 51°17.013 2°52.62 -999 -999 -999 -999 -999
2008-09-05 06:43:07 51°17.029 2°52.608 -999 -999 -999 -999 -999
2008-09-05 06:43:12 51°17.044 2°52.596 -999 -999 -999 -999 -999
2008-09-05 06:43:17 51°17.059 2°52.584 -999 -999 -999 -999 -999
2008-09-05 06:43:22 51°17.075 2°52.572 -999 -999 -999 -999 -999
2008-09-05 06:43:27 51°17.09 2°52.56 -999 -999 -999 -999 -999
2008-09-05 06:43:32 51°17.106 2°52.548 -999 -999 -999 -999 -999
2008-09-05 06:43:37 51°17.121 2°52.536 -999 -999 -999 -999 -999
2008-09-05 06:43:42 51°17.136 2°52.524 -999 -999 -999 -999 -999
2008-09-05 06:43:47 51°17.152 2°52.512 -999 -999 -999 -999 -999
2008-09-05 06:43:52 51°17.167 2°52.499 -999 -999 -999 -999 -999
2008-09-05 06:43:57 51°17.182 2°52.487 -999 -999 -999 -999 -999
2008-09-05 06:44:02 51°17.197 2°52.475 -999 -999 -999 -999 -999
2008-09-05 06:44:07 51°17.213 2°52.463 -999 -999 -999 -999 -999
2008-09-05 06:44:12 51°17.228 2°52.451 -999 -999 -999 -999 -999
2008-09-05 06:44:17 51°17.243 2°52.438 -999 -999 -999 -999 -999
2008-09-05 06:44:22 51°17.259 2°52.426 -999 -999 -999 -999 -999
2008-09-05 06:44:27 51°17.273 2°52.411 -999 -999 -999 -999 -999
2008-09-05 06:44:32 51°17.287 2°52.395 -999 -999 -999 -999 -999
2008-09-05 06:44:37 51°17.3 2°52.379 -999 -999 -999 -999 -999
2008-09-05 06:44:42 51°17.314 2°52.362 -999 -999 -999 -999 -999
2008-09-05 06:44:47 51°17.327 2°52.344 -999 -999 -999 -999 -999
2008-09-05 06:44:52 51°17.339 2°52.326 -999 -999 -999 -999 -999
2008-09-05 06:44:57 51°17.352 2°52.308 -999 -999 -999 -999 -999
2008-09-05 06:45:02 51°17.365 2°52.29 -999 -999 -999 -999 -999
2008-09-05 06:45:07 51°17.377 2°52.271 -999 -999 -999 -999 -999
2008-09-05 06:45:12 51°17.39 2°52.252 -999 -999 -999 -999 -999
2008-09-05 06:45:17 51°17.402 2°52.233 -999 -999 -999 -999 -999
2008-09-05 06:45:22 51°17.414 2°52.213 -999 -999 -999 -999 -999
2008-09-05 06:45:27 51°17.426 2°52.194 -999 -999 -999 -999 -999
2008-09-05 06:45:32 51°17.439 2°52.175 -999 -999 -999 -999 -999
2008-09-05 06:45:37 51°17.451 2°52.156 -999 -999 -999 -999 -999
2008-09-05 06:45:42 51°17.464 2°52.137 -999 -999 -999 -999 -999
2008-09-05 06:45:47 51°17.476 2°52.118 -999 -999 -999 -999 -999
2008-09-05 06:45:52 51°17.488 2°52.098 -999 -999 -999 -999 -999
2008-09-05 06:45:57 51°17.498 2°52.077 -999 -999 -999 -999 -999
2008-09-05 06:46:02 51°17.509 2°52.056 -999 -999 -999 -999 -999
2008-09-05 06:46:07 51°17.519 2°52.034 -999 -999 -999 -999 -999
2008-09-05 06:46:12 51°17.529 2°52.012 -999 -999 -999 -999 -999
2008-09-05 06:46:17 51°17.538 2°51.989 -999 -999 -999 -999 -999
2008-09-05 06:46:22 51°17.547 2°51.966 -999 -999 -999 -999 -999
2008-09-05 06:46:27 51°17.556 2°51.944 -999 -999 -999 -999 -999
2008-09-05 06:46:32 51°17.565 2°51.92 -999 -999 -999 -999 -999
2008-09-05 06:46:37 51°17.574 2°51.897 -999 -999 -999 -999 -999
2008-09-05 06:46:42 51°17.583 2°51.874 -999 -999 -999 -999 -999
2008-09-05 06:46:47 51°17.592 2°51.851 -999 -999 -999 -999 -999
2008-09-05 06:46:52 51°17.601 2°51.827 -999 -999 -999 -999 -999
2008-09-05 06:46:57 51°17.61 2°51.804 -999 -999 -999 -999 -999
2008-09-05 06:47:02 51°17.619 2°51.781 -999 -999 -999 -999 -999
2008-09-05 06:47:07 51°17.628 2°51.758 -999 -999 -999 -999 -999
2008-09-05 06:47:12 51°17.637 2°51.734 -999 -999 -999 -999 -999
2008-09-05 06:47:17 51°17.646 2°51.711 -999 -999 -999 -999 -999
2008-09-05 06:47:22 51°17.654 2°51.687 -999 -999 -999 -999 -999
2008-09-05 06:47:27 51°17.663 2°51.664 -999 -999 -999 -999 -999
2008-09-05 06:47:32 51°17.673 2°51.641 -999 -999 -999 -999 -999
2008-09-05 06:47:37 51°17.682 2°51.618 -999 -999 -999 -999 -999
2008-09-05 06:47:42 51°17.691 2°51.595 -999 -999 -999 -999 -999
2008-09-05 06:47:47 51°17.7 2°51.572 -999 -999 -999 -999 -999
2008-09-05 06:47:52 51°17.709 2°51.549 -999 -999 -999 -999 -999
2008-09-05 06:47:57 51°17.717 2°51.524 -999 -999 -999 -999 -999
2008-09-05 06:48:02 51°17.725 2°51.501 -999 -999 -999 -999 -999
2008-09-05 06:48:07 51°17.733 2°51.476 -999 -999 -999 -999 -999
2008-09-05 06:48:12 51°17.741 2°51.452 -999 -999 -999 -999 -999
2008-09-05 06:48:17 51°17.748 2°51.428 -999 -999 -999 -999 -999
2008-09-05 06:48:22 51°17.756 2°51.404 -999 -999 -999 -999 -999
2008-09-05 06:48:27 51°17.764 2°51.379 -999 -999 -999 -999 -999
2008-09-05 06:48:32 51°17.772 2°51.355 -999 -999 -999 -999 -999
2008-09-05 06:48:37 51°17.779 2°51.33 -999 -999 -999 -999 -999
2008-09-05 06:48:42 51°17.786 2°51.305 -999 -999 -999 -999 -999
2008-09-05 06:48:47 51°17.793 2°51.281 -999 -999 -999 -999 -999
2008-09-05 06:48:52 51°17.801 2°51.256 -999 -999 -999 -999 -999
2008-09-05 06:48:57 51°17.808 2°51.231 -999 -999 -999 -999 -999
2008-09-05 06:49:02 51°17.815 2°51.207 -999 -999 -999 -999 -999
2008-09-05 06:49:07 51°17.822 2°51.182 -999 -999 -999 -999 -999
2008-09-05 06:49:12 51°17.83 2°51.158 -999 -999 -999 -999 -999
2008-09-05 06:49:17 51°17.837 2°51.132 -999 -999 -999 -999 -999
2008-09-05 06:49:22 51°17.845 2°51.108 -999 -999 -999 -999 -999
2008-09-05 06:49:27 51°17.853 2°51.084 -999 -999 -999 -999 -999
2008-09-05 06:49:32 51°17.861 2°51.06 -999 -999 -999 -999 -999
2008-09-05 06:49:37 51°17.869 2°51.036 -999 -999 -999 -999 -999
2008-09-05 06:49:42 51°17.877 2°51.012 -999 -999 -999 -999 -999
2008-09-05 06:49:47 51°17.886 2°50.988 -999 -999 -999 -999 -999
2008-09-05 06:49:52 51°17.894 2°50.964 -999 -999 -999 -999 -999
2008-09-05 06:49:57 51°17.902 2°50.941 -999 -999 -999 -999 -999
2008-09-05 06:50:02 51°17.91 2°50.917 -999 -999 -999 -999 -999
2008-09-05 06:50:07 51°17.919 2°50.892 -999 -999 -999 -999 -999
2008-09-05 06:50:12 51°17.927 2°50.869 -999 -999 -999 -999 -999
2008-09-05 06:50:17 51°17.936 2°50.845 -999 -999 -999 -999 -999
2008-09-05 06:50:22 51°17.945 2°50.821 -999 -999 -999 -999 -999
2008-09-05 06:50:27 51°17.953 2°50.797 -999 -999 -999 -999 -999
2008-09-05 06:50:32 51°17.962 2°50.774 -999 -999 -999 -999 -999
2008-09-05 06:50:37 51°17.971 2°50.751 -999 -999 -999 -999 -999
2008-09-05 06:50:42 51°17.98 2°50.727 -999 -999 -999 -999 -999
2008-09-05 06:50:47 51°17.989 2°50.704 -999 -999 -999 -999 -999
2008-09-05 06:50:52 51°17.999 2°50.681 -999 -999 -999 -999 -999
2008-09-05 06:50:57 51°18.008 2°50.658 -999 -999 -999 -999 -999
2008-09-05 06:51:02 51°18.017 2°50.635 -999 -999 -999 -999 -999
2008-09-05 06:51:07 51°18.027 2°50.612 -999 -999 -999 -999 -999
2008-09-05 06:51:12 51°18.036 2°50.589 -999 -999 -999 -999 -999
2008-09-05 06:51:17 51°18.045 2°50.566 -999 -999 -999 -999 -999
2008-09-05 06:51:22 51°18.054 2°50.543 -999 -999 -999 -999 -999
2008-09-05 06:51:27 51°18.064 2°50.52 -999 -999 -999 -999 -999
2008-09-05 06:51:32 51°18.073 2°50.496 -999 -999 -999 -999 -999
2008-09-05 06:51:37 51°18.081 2°50.472 -999 -999 -999 -999 -999
2008-09-05 06:51:42 51°18.09 2°50.448 -999 -999 -999 -999 -999
2008-09-05 06:51:47 51°18.098 2°50.424 -999 -999 -999 -999 -999
2008-09-05 06:51:52 51°18.106 2°50.4 -999 -999 -999 -999 -999
2008-09-05 06:51:57 51°18.115 2°50.376 -999 -999 -999 -999 -999
2008-09-05 06:52:02 51°18.123 2°50.352 -999 -999 -999 -999 -999
2008-09-05 06:52:07 51°18.132 2°50.328 -999 -999 -999 -999 -999
2008-09-05 06:52:12 51°18.14 2°50.304 -999 -999 -999 -999 -999
2008-09-05 06:52:17 51°18.148 2°50.28 -999 -999 -999 -999 -999
2008-09-05 06:52:22 51°18.157 2°50.256 -999 -999 -999 -999 -999
2008-09-05 06:52:27 51°18.165 2°50.232 -999 -999 -999 -999 -999
2008-09-05 06:52:32 51°18.173 2°50.208 -999 -999 -999 -999 -999
2008-09-05 06:52:37 51°18.182 2°50.184 -999 -999 -999 -999 -999
2008-09-05 06:52:42 51°18.19 2°50.161 -999 -999 -999 -999 -999
2008-09-05 06:52:47 51°18.198 2°50.137 -999 -999 -999 -999 -999
2008-09-05 06:52:52 51°18.207 2°50.113 -999 -999 -999 -999 -999
2008-09-05 06:52:57 51°18.216 2°50.089 -999 -999 -999 -999 -999
2008-09-05 06:53:02 51°18.224 2°50.065 -999 -999 -999 -999 -999
2008-09-05 06:53:07 51°18.233 2°50.041 -999 -999 -999 -999 -999
2008-09-05 06:53:12 51°18.242 2°50.018 -999 -999 -999 -999 -999
2008-09-05 06:53:17 51°18.25 2°49.994 -999 -999 -999 -999 -999
2008-09-05 06:53:22 51°18.259 2°49.97 -999 -999 -999 -999 -999
2008-09-05 06:53:27 51°18.268 2°49.947 -999 -999 -999 -999 -999
2008-09-05 06:53:32 51°18.276 2°49.923 -999 -999 -999 -999 -999
2008-09-05 06:53:37 51°18.284 2°49.899 -999 -999 -999 -999 -999
2008-09-05 06:53:42 51°18.29 2°49.873 -999 -999 -999 -999 -999
2008-09-05 06:53:47 51°18.297 2°49.848 -999 -999 -999 -999 -999
2008-09-05 06:53:52 51°18.304 2°49.823 -999 -999 -999 -999 -999
2008-09-05 06:53:57 51°18.311 2°49.798 -999 -999 -999 -999 -999
2008-09-05 06:54:02 51°18.317 2°49.773 -999 -999 -999 -999 -999
2008-09-05 06:54:07 51°18.324 2°49.748 -999 -999 -999 -999 -999
2008-09-05 06:54:12 51°18.33 2°49.722 -999 -999 -999 -999 -999
2008-09-05 06:54:17 51°18.337 2°49.697 -999 -999 -999 -999 -999
2008-09-05 06:54:22 51°18.343 2°49.671 -999 -999 -999 -999 -999
2008-09-05 06:54:27 51°18.349 2°49.645 -999 -999 -999 -999 -999
2008-09-05 06:54:32 51°18.356 2°49.62 -999 -999 -999 -999 -999
2008-09-05 06:54:37 51°18.362 2°49.594 -999 -999 -999 -999 -999
2008-09-05 06:54:42 51°18.369 2°49.569 -999 -999 -999 -999 -999
2008-09-05 06:54:47 51°18.375 2°49.544 -999 -999 -999 -999 -999
2008-09-05 06:54:52 51°18.382 2°49.518 -999 -999 -999 -999 -999
2008-09-05 06:54:57 51°18.388 2°49.493 -999 -999 -999 -999 -999
2008-09-05 06:55:02 51°18.394 2°49.467 -999 -999 -999 -999 -999
2008-09-05 06:55:07 51°18.4 2°49.442 -999 -999 -999 -999 -999
2008-09-05 06:55:12 51°18.406 2°49.416 -999 -999 -999 -999 -999
2008-09-05 06:55:17 51°18.413 2°49.391 -999 -999 -999 -999 -999
2008-09-05 06:55:22 51°18.419 2°49.365 -999 -999 -999 -999 -999
2008-09-05 06:55:27 51°18.425 2°49.34 -999 -999 -999 -999 -999
2008-09-05 06:55:32 51°18.432 2°49.314 -999 -999 -999 -999 -999
2008-09-05 06:55:37 51°18.438 2°49.289 -999 -999 -999 -999 -999
2008-09-05 06:55:42 51°18.444 2°49.263 -999 -999 -999 -999 -999
2008-09-05 06:55:47 51°18.451 2°49.238 -999 -999 -999 -999 -999
2008-09-05 06:55:52 51°18.457 2°49.212 -999 -999 -999 -999 -999
2008-09-05 06:55:57 51°18.463 2°49.187 -999 -999 -999 -999 -999
2008-09-05 06:56:02 51°18.469 2°49.161 -999 -999 -999 -999 -999
2008-09-05 06:56:07 51°18.476 2°49.136 -999 -999 -999 -999 -999
2008-09-05 06:56:12 51°18.482 2°49.11 -999 -999 -999 -999 -999
2008-09-05 06:56:17 51°18.488 2°49.085 -999 -999 -999 -999 -999
2008-09-05 06:56:22 51°18.495 2°49.059 -999 -999 -999 -999 -999
2008-09-05 06:56:27 51°18.501 2°49.033 -999 -999 -999 -999 -999
2008-09-05 06:56:32 51°18.507 2°49.008 -999 -999 -999 -999 -999
2008-09-05 06:56:37 51°18.512 2°48.982 -999 -999 -999 -999 -999
2008-09-05 06:56:42 51°18.518 2°48.956 -999 -999 -999 -999 -999
2008-09-05 06:56:47 51°18.524 2°48.93 -999 -999 -999 -999 -999
2008-09-05 06:56:52 51°18.529 2°48.904 -999 -999 -999 -999 -999
2008-09-05 06:56:57 51°18.535 2°48.878 -999 -999 -999 -999 -999
2008-09-05 06:57:02 51°18.54 2°48.852 -999 -999 -999 -999 -999
2008-09-05 06:57:07 51°18.545 2°48.825 -999 -999 -999 -999 -999
2008-09-05 06:57:12 51°18.549 2°48.799 -999 -999 -999 -999 -999
2008-09-05 06:57:17 51°18.554 2°48.773 -999 -999 -999 -999 -999
2008-09-05 06:57:22 51°18.559 2°48.746 -999 -999 -999 -999 -999
2008-09-05 06:57:27 51°18.564 2°48.72 -999 -999 -999 -999 -999
2008-09-05 06:57:32 51°18.57 2°48.694 -999 -999 -999 -999 -999
2008-09-05 06:57:37 51°18.575 2°48.668 -999 -999 -999 -999 -999
2008-09-05 06:57:42 51°18.58 2°48.641 -999 -999 -999 -999 -999
2008-09-05 06:57:47 51°18.585 2°48.615 -999 -999 -999 -999 -999
2008-09-05 06:57:52 51°18.589 2°48.588 -999 -999 -999 -999 -999
2008-09-05 06:57:57 51°18.595 2°48.562 -999 -999 -999 -999 -999
2008-09-05 06:58:02 51°18.6 2°48.536 -999 -999 -999 -999 -999
2008-09-05 06:58:07 51°18.604 2°48.509 -999 -999 -999 -999 -999
2008-09-05 06:58:12 51°18.609 2°48.483 -999 -999 -999 -999 -999
2008-09-05 06:58:17 51°18.614 2°48.456 -999 -999 -999 -999 -999
2008-09-05 06:58:22 51°18.618 2°48.429 -999 -999 -999 -999 -999
2008-09-05 06:58:27 51°18.622 2°48.403 -999 -999 -999 -999 -999
2008-09-05 06:58:32 51°18.627 2°48.376 -999 -999 -999 -999 -999
2008-09-05 06:58:37 51°18.631 2°48.35 -999 -999 -999 -999 -999
2008-09-05 06:58:42 51°18.635 2°48.323 -999 -999 -999 -999 -999
2008-09-05 06:58:47 51°18.64 2°48.296 -999 -999 -999 -999 -999
2008-09-05 06:58:52 51°18.644 2°48.27 -999 -999 -999 -999 -999
2008-09-05 06:58:57 51°18.649 2°48.243 -999 -999 -999 -999 -999
2008-09-05 06:59:02 51°18.653 2°48.216 -999 -999 -999 -999 -999
2008-09-05 06:59:07 51°18.658 2°48.19 -999 -999 -999 -999 -999
2008-09-05 06:59:12 51°18.662 2°48.163 -999 -999 -999 -999 -999
2008-09-05 06:59:17 51°18.667 2°48.137 -999 -999 -999 -999 -999
2008-09-05 06:59:22 51°18.671 2°48.11 -999 -999 -999 -999 -999
2008-09-05 06:59:27 51°18.676 2°48.084 -999 -999 -999 -999 -999
2008-09-05 06:59:32 51°18.68 2°48.057 -999 -999 -999 -999 -999
2008-09-05 06:59:37 51°18.685 2°48.031 -999 -999 -999 -999 -999
2008-09-05 06:59:42 51°18.689 2°48.005 -999 -999 -999 -999 -999
2008-09-05 06:59:47 51°18.694 2°47.979 -999 -999 -999 -999 -999
2008-09-05 06:59:52 51°18.699 2°47.952 -999 -999 -999 -999 -999
2008-09-05 06:59:57 51°18.704 2°47.926 -999 -999 -999 -999 -999
2008-09-05 07:00:02 51°18.708 2°47.9 -999 -999 -999 -999 -999
2008-09-05 07:00:07 51°18.713 2°47.873 -999 -999 -999 -999 -999
2008-09-05 07:00:12 51°18.718 2°47.847 -999 -999 -999 -999 -999
2008-09-05 07:00:17 51°18.723 2°47.821 -999 -999 -999 -999 -999
2008-09-05 07:00:22 51°18.729 2°47.795 -999 -999 -999 -999 -999
2008-09-05 07:00:27 51°18.734 2°47.769 -999 -999 -999 -999 -999
2008-09-05 07:00:32 51°18.74 2°47.743 -999 -999 -999 -999 -999
2008-09-05 07:00:37 51°18.745 2°47.716 -999 -999 -999 -999 -999
2008-09-05 07:00:42 51°18.751 2°47.69 -999 -999 -999 -999 -999
2008-09-05 07:00:47 51°18.757 2°47.664 -999 -999 -999 -999 -999
2008-09-05 07:00:52 51°18.762 2°47.638 -999 -999 -999 -999 -999
2008-09-05 07:00:57 51°18.767 2°47.612 -999 -999 -999 -999 -999
2008-09-05 07:01:02 51°18.773 2°47.586 -999 -999 -999 -999 -999
2008-09-05 07:01:07 51°18.778 2°47.559 -999 -999 -999 -999 -999
2008-09-05 07:01:12 51°18.783 2°47.533 -999 -999 -999 -999 -999
2008-09-05 07:01:17 51°18.788 2°47.506 -999 -999 -999 -999 -999
2008-09-05 07:01:22 51°18.793 2°47.48 -999 -999 -999 -999 -999
2008-09-05 07:01:27 51°18.798 2°47.454 -999 -999 -999 -999 -999
2008-09-05 07:01:32 51°18.803 2°47.427 -999 -999 -999 -999 -999
2008-09-05 07:01:37 51°18.808 2°47.401 -999 -999 -999 -999 -999
2008-09-05 07:01:42 51°18.814 2°47.375 -999 -999 -999 -999 -999
2008-09-05 07:01:47 51°18.819 2°47.349 -999 -999 -999 -999 -999
2008-09-05 07:01:52 51°18.825 2°47.323 -999 -999 -999 -999 -999
2008-09-05 07:01:57 51°18.83 2°47.297 -999 -999 -999 -999 -999
2008-09-05 07:02:02 51°18.836 2°47.271 -999 -999 -999 -999 -999
2008-09-05 07:02:07 51°18.841 2°47.245 -999 -999 -999 -999 -999
2008-09-05 07:02:12 51°18.847 2°47.219 -999 -999 -999 -999 -999
2008-09-05 07:02:17 51°18.852 2°47.193 -999 -999 -999 -999 -999
2008-09-05 07:02:22 51°18.858 2°47.167 -999 -999 -999 -999 -999
2008-09-05 07:02:27 51°18.862 2°47.141 -999 -999 -999 -999 -999
2008-09-05 07:02:32 51°18.868 2°47.115 -999 -999 -999 -999 -999
2008-09-05 07:02:37 51°18.873 2°47.089 -999 -999 -999 -999 -999
2008-09-05 07:02:42 51°18.878 2°47.063 -999 -999 -999 -999 -999
2008-09-05 07:02:47 51°18.884 2°47.037 -999 -999 -999 -999 -999
2008-09-05 07:02:52 51°18.889 2°47.01 -999 -999 -999 -999 -999
2008-09-05 07:02:57 51°18.894 2°46.985 -999 -999 -999 -999 -999
2008-09-05 07:03:02 51°18.899 2°46.958 -999 -999 -999 -999 -999
2008-09-05 07:03:07 51°18.904 2°46.932 -999 -999 -999 -999 -999
2008-09-05 07:03:12 51°18.909 2°46.906 -999 -999 -999 -999 -999
2008-09-05 07:03:17 51°18.915 2°46.88 -999 -999 -999 -999 -999
2008-09-05 07:03:22 51°18.92 2°46.854 -999 -999 -999 -999 -999
2008-09-05 07:03:27 51°18.925 2°46.828 -999 -999 -999 -999 -999
2008-09-05 07:03:32 51°18.93 2°46.802 -999 -999 -999 -999 -999
2008-09-05 07:03:37 51°18.935 2°46.775 -999 -999 -999 -999 -999
2008-09-05 07:03:42 51°18.94 2°46.749 -999 -999 -999 -999 -999
2008-09-05 07:03:47 51°18.945 2°46.723 -999 -999 -999 -999 -999
2008-09-05 07:03:52 51°18.95 2°46.697 -999 -999 -999 -999 -999
2008-09-05 07:03:57 51°18.954 2°46.671 -999 -999 -999 -999 -999
2008-09-05 07:04:02 51°18.959 2°46.644 -999 -999 -999 -999 -999
2008-09-05 07:04:07 51°18.964 2°46.618 -999 -999 -999 -999 -999
2008-09-05 07:04:12 51°18.968 2°46.591 -999 -999 -999 -999 -999
2008-09-05 07:04:17 51°18.973 2°46.565 -999 -999 -999 -999 -999
2008-09-05 07:04:22 51°18.977 2°46.539 -999 -999 -999 -999 -999
2008-09-05 07:04:27 51°18.982 2°46.512 -999 -999 -999 -999 -999
2008-09-05 07:04:32 51°18.986 2°46.486 -999 -999 -999 -999 -999
2008-09-05 07:04:37 51°18.991 2°46.459 -999 -999 -999 -999 -999
2008-09-05 07:04:42 51°18.995 2°46.433 -999 -999 -999 -999 -999
2008-09-05 07:04:47 51°19 2°46.406 -999 -999 -999 -999 -999
2008-09-05 07:04:52 51°19.005 2°46.38 -999 -999 -999 -999 -999
2008-09-05 07:04:57 51°19.009 2°46.353 -999 -999 -999 -999 -999
2008-09-05 07:05:02 51°19.013 2°46.327 -999 -999 -999 -999 -999
2008-09-05 07:05:07 51°19.018 2°46.3 -999 -999 -999 -999 -999
2008-09-05 07:05:12 51°19.023 2°46.273 -999 -999 -999 -999 -999
2008-09-05 07:05:17 51°19.027 2°46.247 -999 -999 -999 -999 -999
2008-09-05 07:05:22 51°19.031 2°46.22 -999 -999 -999 -999 -999
2008-09-05 07:05:27 51°19.036 2°46.194 -999 -999 -999 -999 -999
2008-09-05 07:05:32 51°19.041 2°46.168 -999 -999 -999 -999 -999
2008-09-05 07:05:37 51°19.045 2°46.142 -999 -999 -999 -999 -999
2008-09-05 07:05:42 51°19.049 2°46.115 -999 -999 -999 -999 -999
2008-09-05 07:05:47 51°19.054 2°46.089 -999 -999 -999 -999 -999
2008-09-05 07:05:52 51°19.058 2°46.062 -999 -999 -999 -999 -999
2008-09-05 07:05:57 51°19.062 2°46.036 -999 -999 -999 -999 -999
2008-09-05 07:06:02 51°19.065 2°46.009 -999 -999 -999 -999 -999
2008-09-05 07:06:07 51°19.07 2°45.983 -999 -999 -999 -999 -999
2008-09-05 07:06:12 51°19.074 2°45.957 -999 -999 -999 -999 -999
2008-09-05 07:06:17 51°19.079 2°45.93 -999 -999 -999 -999 -999
2008-09-05 07:06:22 51°19.083 2°45.904 -999 -999 -999 -999 -999
2008-09-05 07:06:27 51°19.088 2°45.878 -999 -999 -999 -999 -999
2008-09-05 07:06:32 51°19.092 2°45.851 -999 -999 -999 -999 -999
2008-09-05 07:06:37 51°19.097 2°45.825 -999 -999 -999 -999 -999
2008-09-05 07:06:42 51°19.101 2°45.799 -999 -999 -999 -999 -999
2008-09-05 07:06:47 51°19.106 2°45.773 -999 -999 -999 -999 -999
2008-09-05 07:06:52 51°19.111 2°45.746 -999 -999 -999 -999 -999
2008-09-05 07:06:57 51°19.115 2°45.72 -999 -999 -999 -999 -999
2008-09-05 07:07:02 51°19.12 2°45.693 -999 -999 -999 -999 -999
2008-09-05 07:07:07 51°19.124 2°45.668 -999 -999 -999 -999 -999
2008-09-05 07:07:12 51°19.129 2°45.641 -999 -999 -999 -999 -999
2008-09-05 07:07:17 51°19.134 2°45.615 -999 -999 -999 -999 -999
2008-09-05 07:07:22 51°19.138 2°45.588 -999 -999 -999 -999 -999
2008-09-05 07:07:27 51°19.143 2°45.562 -999 -999 -999 -999 -999
2008-09-05 07:07:32 51°19.147 2°45.536 -999 -999 -999 -999 -999
2008-09-05 07:07:37 51°19.152 2°45.509 -999 -999 -999 -999 -999
2008-09-05 07:07:42 51°19.156 2°45.483 -999 -999 -999 -999 -999
2008-09-05 07:07:47 51°19.16 2°45.456 -999 -999 -999 -999 -999
2008-09-05 07:07:52 51°19.164 2°45.429 -999 -999 -999 -999 -999
2008-09-05 07:07:57 51°19.169 2°45.403 -999 -999 -999 -999 -999
2008-09-05 07:08:02 51°19.173 2°45.376 -999 -999 -999 -999 -999
2008-09-05 07:08:07 51°19.178 2°45.35 -999 -999 -999 -999 -999
2008-09-05 07:08:12 51°19.182 2°45.323 -999 -999 -999 -999 -999
2008-09-05 07:08:17 51°19.187 2°45.296 -999 -999 -999 -999 -999
2008-09-05 07:08:22 51°19.191 2°45.27 -999 -999 -999 -999 -999
2008-09-05 07:08:27 51°19.196 2°45.243 -999 -999 -999 -999 -999
2008-09-05 07:08:32 51°19.201 2°45.217 -999 -999 -999 -999 -999
2008-09-05 07:08:37 51°19.206 2°45.19 -999 -999 -999 -999 -999
2008-09-05 07:08:42 51°19.21 2°45.164 -999 -999 -999 -999 -999
2008-09-05 07:08:47 51°19.215 2°45.137 -999 -999 -999 -999 -999
2008-09-05 07:08:52 51°19.22 2°45.11 -999 -999 -999 -999 -999
2008-09-05 07:08:57 51°19.225 2°45.084 -999 -999 -999 -999 -999
2008-09-05 07:09:02 51°19.229 2°45.057 -999 -999 -999 -999 -999
2008-09-05 07:09:07 51°19.234 2°45.031 -999 -999 -999 -999 -999
2008-09-05 07:09:12 51°19.239 2°45.004 -999 -999 -999 -999 -999
2008-09-05 07:09:17 51°19.243 2°44.977 -999 -999 -999 -999 -999
2008-09-05 07:09:22 51°19.248 2°44.95 -999 -999 -999 -999 -999
2008-09-05 07:09:27 51°19.252 2°44.923 -999 -999 -999 -999 -999
2008-09-05 07:09:32 51°19.256 2°44.896 -999 -999 -999 -999 -999
2008-09-05 07:09:37 51°19.26 2°44.869 -999 -999 -999 -999 -999
2008-09-05 07:09:42 51°19.263 2°44.842 -999 -999 -999 -999 -999
2008-09-05 07:09:47 51°19.267 2°44.814 -999 -999 -999 -999 -999
2008-09-05 07:09:52 51°19.27 2°44.787 -999 -999 -999 -999 -999
2008-09-05 07:09:57 51°19.274 2°44.76 -999 -999 -999 -999 -999
2008-09-05 07:10:02 51°19.277 2°44.733 -999 -999 -999 -999 -999
2008-09-05 07:10:07 51°19.28 2°44.705 -999 -999 -999 -999 -999
2008-09-05 07:10:12 51°19.283 2°44.678 -999 -999 -999 -999 -999
2008-09-05 07:10:17 51°19.285 2°44.651 -999 -999 -999 -999 -999
2008-09-05 07:10:22 51°19.288 2°44.623 -999 -999 -999 -999 -999
2008-09-05 07:10:27 51°19.29 2°44.596 -999 -999 -999 -999 -999
2008-09-05 07:10:32 51°19.293 2°44.569 -999 -999 -999 -999 -999
2008-09-05 07:10:37 51°19.296 2°44.542 -999 -999 -999 -999 -999
2008-09-05 07:10:42 51°19.299 2°44.514 -999 -999 -999 -999 -999
2008-09-05 07:10:47 51°19.303 2°44.487 -999 -999 -999 -999 -999
2008-09-05 07:10:52 51°19.307 2°44.461 -999 -999 -999 -999 -999
2008-09-05 07:10:57 51°19.31 2°44.434 -999 -999 -999 -999 -999
2008-09-05 07:11:02 51°19.314 2°44.407 -999 -999 -999 -999 -999
2008-09-05 07:11:07 51°19.318 2°44.38 -999 -999 -999 -999 -999
2008-09-05 07:11:12 51°19.321 2°44.353 -999 -999 -999 -999 -999
2008-09-05 07:11:17 51°19.325 2°44.326 -999 -999 -999 -999 -999
2008-09-05 07:11:22 51°19.329 2°44.3 -999 -999 -999 -999 -999
2008-09-05 07:11:27 51°19.332 2°44.273 -999 -999 -999 -999 -999
2008-09-05 07:11:32 51°19.335 2°44.246 -999 -999 -999 -999 -999
2008-09-05 07:11:37 51°19.339 2°44.22 -999 -999 -999 -999 -999
2008-09-05 07:11:42 51°19.343 2°44.193 -999 -999 -999 -999 -999
2008-09-05 07:11:47 51°19.347 2°44.166 -999 -999 -999 -999 -999
2008-09-05 07:11:52 51°19.351 2°44.14 -999 -999 -999 -999 -999
2008-09-05 07:11:57 51°19.355 2°44.113 -999 -999 -999 -999 -999
2008-09-05 07:12:02 51°19.359 2°44.087 -999 -999 -999 -999 -999
2008-09-05 07:12:07 51°19.362 2°44.06 -999 -999 -999 -999 -999
2008-09-05 07:12:12 51°19.366 2°44.034 -999 -999 -999 -999 -999
2008-09-05 07:12:17 51°19.37 2°44.007 -999 -999 -999 -999 -999
2008-09-05 07:12:22 51°19.374 2°43.981 -999 -999 -999 -999 -999
2008-09-05 07:12:27 51°19.377 2°43.954 -999 -999 -999 -999 -999
2008-09-05 07:12:32 51°19.38 2°43.928 -999 -999 -999 -999 -999
2008-09-05 07:12:37 51°19.384 2°43.901 -999 -999 -999 -999 -999
2008-09-05 07:12:42 51°19.387 2°43.874 -999 -999 -999 -999 -999
2008-09-05 07:12:47 51°19.391 2°43.848 -999 -999 -999 -999 -999
2008-09-05 07:12:52 51°19.395 2°43.821 -999 -999 -999 -999 -999
2008-09-05 07:12:57 51°19.398 2°43.794 -999 -999 -999 -999 -999
2008-09-05 07:13:02 51°19.401 2°43.767 -999 -999 -999 -999 -999
2008-09-05 07:13:07 51°19.405 2°43.741 -999 -999 -999 -999 -999
2008-09-05 07:13:12 51°19.409 2°43.714 -999 -999 -999 -999 -999
2008-09-05 07:13:17 51°19.412 2°43.688 -999 -999 -999 -999 -999
2008-09-05 07:13:22 51°19.415 2°43.661 -999 -999 -999 -999 -999
2008-09-05 07:13:27 51°19.419 2°43.634 -999 -999 -999 -999 -999
2008-09-05 07:13:32 51°19.423 2°43.608 -999 -999 -999 -999 -999
2008-09-05 07:13:37 51°19.427 2°43.581 -999 -999 -999 -999 -999
2008-09-05 07:13:42 51°19.431 2°43.554 -999 -999 -999 -999 -999
2008-09-05 07:13:47 51°19.435 2°43.528 -999 -999 -999 -999 -999
2008-09-05 07:13:52 51°19.44 2°43.502 -999 -999 -999 -999 -999
2008-09-05 07:13:57 51°19.444 2°43.475 -999 -999 -999 -999 -999
2008-09-05 07:14:02 51°19.448 2°43.448 -999 -999 -999 -999 -999
2008-09-05 07:14:07 51°19.452 2°43.422 -999 -999 -999 -999 -999
2008-09-05 07:14:12 51°19.456 2°43.396 -999 -999 -999 -999 -999
2008-09-05 07:14:17 51°19.459 2°43.369 -999 -999 -999 -999 -999
2008-09-05 07:14:22 51°19.463 2°43.343 -999 -999 -999 -999 -999
2008-09-05 07:14:27 51°19.466 2°43.316 -999 -999 -999 -999 -999
2008-09-05 07:14:32 51°19.47 2°43.289 -999 -999 -999 -999 -999
2008-09-05 07:14:37 51°19.474 2°43.263 -999 -999 -999 -999 -999
2008-09-05 07:14:42 51°19.478 2°43.236 -999 -999 -999 -999 -999
2008-09-05 07:14:47 51°19.482 2°43.21 -999 -999 -999 -999 -999
2008-09-05 07:14:52 51°19.486 2°43.183 -999 -999 -999 -999 -999
2008-09-05 07:14:57 51°19.491 2°43.157 -999 -999 -999 -999 -999
2008-09-05 07:15:02 51°19.495 2°43.13 -999 -999 -999 -999 -999
2008-09-05 07:15:07 51°19.499 2°43.104 -999 -999 -999 -999 -999
2008-09-05 07:15:12 51°19.504 2°43.077 -999 -999 -999 -999 -999
2008-09-05 07:15:17 51°19.508 2°43.051 -999 -999 -999 -999 -999
2008-09-05 07:15:22 51°19.512 2°43.025 -999 -999 -999 -999 -999
2008-09-05 07:15:27 51°19.516 2°42.998 -999 -999 -999 -999 -999
2008-09-05 07:15:32 51°19.521 2°42.972 -999 -999 -999 -999 -999
2008-09-05 07:15:37 51°19.524 2°42.945 -999 -999 -999 -999 -999
2008-09-05 07:15:42 51°19.529 2°42.919 -999 -999 -999 -999 -999
2008-09-05 07:15:47 51°19.533 2°42.892 -999 -999 -999 -999 -999
2008-09-05 07:15:52 51°19.537 2°42.866 -999 -999 -999 -999 -999
2008-09-05 07:15:57 51°19.541 2°42.839 -999 -999 -999 -999 -999
2008-09-05 07:16:02 51°19.545 2°42.812 -999 -999 -999 -999 -999
2008-09-05 07:16:07 51°19.549 2°42.786 -999 -999 -999 -999 -999
2008-09-05 07:16:12 51°19.553 2°42.759 -999 -999 -999 -999 -999
2008-09-05 07:16:17 51°19.556 2°42.732 -999 -999 -999 -999 -999
2008-09-05 07:16:22 51°19.561 2°42.706 -999 -999 -999 -999 -999
2008-09-05 07:16:27 51°19.564 2°42.679 -999 -999 -999 -999 -999
2008-09-05 07:16:32 51°19.568 2°42.653 -999 -999 -999 -999 -999
2008-09-05 07:16:37 51°19.572 2°42.626 -999 -999 -999 -999 -999
2008-09-05 07:16:42 51°19.576 2°42.6 -999 -999 -999 -999 -999
2008-09-05 07:16:47 51°19.579 2°42.573 -999 -999 -999 -999 -999
2008-09-05 07:16:52 51°19.583 2°42.546 -999 -999 -999 -999 -999
2008-09-05 07:16:57 51°19.587 2°42.52 -999 -999 -999 -999 -999
2008-09-05 07:17:02 51°19.59 2°42.493 -999 -999 -999 -999 -999
2008-09-05 07:17:07 51°19.594 2°42.467 -999 -999 -999 -999 -999
2008-09-05 07:17:12 51°19.599 2°42.44 -999 -999 -999 -999 -999
2008-09-05 07:17:17 51°19.602 2°42.413 -999 -999 -999 -999 -999
2008-09-05 07:17:22 51°19.607 2°42.387 -999 -999 -999 -999 -999
2008-09-05 07:17:27 51°19.611 2°42.36 -999 -999 -999 -999 -999
2008-09-05 07:17:32 51°19.615 2°42.334 -999 -999 -999 -999 -999
2008-09-05 07:17:37 51°19.619 2°42.307 -999 -999 -999 -999 -999
2008-09-05 07:17:42 51°19.623 2°42.281 -999 -999 -999 -999 -999
2008-09-05 07:17:47 51°19.627 2°42.254 -999 -999 -999 -999 -999
2008-09-05 07:17:52 51°19.631 2°42.228 -999 -999 -999 -999 -999
2008-09-05 07:17:57 51°19.635 2°42.201 -999 -999 -999 -999 -999
2008-09-05 07:18:02 51°19.639 2°42.175 -999 -999 -999 -999 -999
2008-09-05 07:18:07 51°19.642 2°42.148 -999 -999 -999 -999 -999
2008-09-05 07:18:12 51°19.647 2°42.122 -999 -999 -999 -999 -999
2008-09-05 07:18:17 51°19.65 2°42.095 -999 -999 -999 -999 -999
2008-09-05 07:18:22 51°19.655 2°42.068 -999 -999 -999 -999 -999
2008-09-05 07:18:27 51°19.658 2°42.042 -999 -999 -999 -999 -999
2008-09-05 07:18:32 51°19.662 2°42.015 -999 -999 -999 -999 -999
2008-09-05 07:18:37 51°19.666 2°41.988 -999 -999 -999 -999 -999
2008-09-05 07:18:42 51°19.67 2°41.961 -999 -999 -999 -999 -999
2008-09-05 07:18:47 51°19.673 2°41.935 -999 -999 -999 -999 -999
2008-09-05 07:18:52 51°19.677 2°41.908 -999 -999 -999 -999 -999
2008-09-05 07:18:57 51°19.681 2°41.882 -999 -999 -999 -999 -999
2008-09-05 07:19:02 51°19.686 2°41.855 -999 -999 -999 -999 -999
2008-09-05 07:19:07 51°19.69 2°41.829 -999 -999 -999 -999 -999
2008-09-05 07:19:12 51°19.694 2°41.802 -999 -999 -999 -999 -999
2008-09-05 07:19:17 51°19.697 2°41.775 -999 -999 -999 -999 -999
2008-09-05 07:19:22 51°19.701 2°41.749 -999 -999 -999 -999 -999
2008-09-05 07:19:27 51°19.704 2°41.722 -999 -999 -999 -999 -999
2008-09-05 07:19:32 51°19.708 2°41.695 -999 -999 -999 -999 -999
2008-09-05 07:19:37 51°19.711 2°41.668 -999 -999 -999 -999 -999
2008-09-05 07:19:42 51°19.714 2°41.641 -999 -999 -999 -999 -999
2008-09-05 07:19:47 51°19.718 2°41.615 -999 -999 -999 -999 -999
2008-09-05 07:19:52 51°19.72 2°41.588 -999 -999 -999 -999 -999
2008-09-05 07:19:57 51°19.724 2°41.561 -999 -999 -999 -999 -999
2008-09-05 07:20:02 51°19.727 2°41.534 -999 -999 -999 -999 -999
2008-09-05 07:20:07 51°19.731 2°41.508 -999 -999 -999 -999 -999
2008-09-05 07:20:12 51°19.734 2°41.481 -999 -999 -999 -999 -999
2008-09-05 07:20:17 51°19.739 2°41.454 -999 -999 -999 -999 -999
2008-09-05 07:20:22 51°19.743 2°41.427 -999 -999 -999 -999 -999
2008-09-05 07:20:27 51°19.747 2°41.401 -999 -999 -999 -999 -999
2008-09-05 07:20:32 51°19.751 2°41.374 -999 -999 -999 -999 -999
2008-09-05 07:20:37 51°19.755 2°41.348 -999 -999 -999 -999 -999
2008-09-05 07:20:42 51°19.759 2°41.321 -999 -999 -999 -999 -999
2008-09-05 07:20:47 51°19.763 2°41.295 -999 -999 -999 -999 -999
2008-09-05 07:20:52 51°19.767 2°41.268 -999 -999 -999 -999 -999
2008-09-05 07:20:57 51°19.771 2°41.241 -999 -999 -999 -999 -999
2008-09-05 07:21:02 51°19.775 2°41.215 -999 -999 -999 -999 -999
2008-09-05 07:21:07 51°19.779 2°41.188 -999 -999 -999 -999 -999
2008-09-05 07:21:12 51°19.783 2°41.161 -999 -999 -999 -999 -999
2008-09-05 07:21:17 51°19.787 2°41.134 -999 -999 -999 -999 -999
2008-09-05 07:21:22 51°19.791 2°41.108 -999 -999 -999 -999 -999
2008-09-05 07:21:27 51°19.796 2°41.081 -999 -999 -999 -999 -999
2008-09-05 07:21:32 51°19.8 2°41.054 -999 -999 -999 -999 -999
2008-09-05 07:21:37 51°19.804 2°41.027 -999 -999 -999 -999 -999
2008-09-05 07:21:42 51°19.808 2°41.001 -999 -999 -999 -999 -999
2008-09-05 07:21:47 51°19.813 2°40.974 -999 -999 -999 -999 -999
2008-09-05 07:21:52 51°19.817 2°40.947 -999 -999 -999 -999 -999
2008-09-05 07:21:57 51°19.821 2°40.92 -999 -999 -999 -999 -999
2008-09-05 07:22:02 51°19.824 2°40.893 -999 -999 -999 -999 -999
2008-09-05 07:22:07 51°19.828 2°40.867 -999 -999 -999 -999 -999
2008-09-05 07:22:12 51°19.832 2°40.84 -999 -999 -999 -999 -999
2008-09-05 07:22:17 51°19.836 2°40.813 -999 -999 -999 -999 -999
2008-09-05 07:22:22 51°19.84 2°40.786 -999 -999 -999 -999 -999
2008-09-05 07:22:27 51°19.844 2°40.759 -999 -999 -999 -999 -999
2008-09-05 07:22:32 51°19.848 2°40.732 -999 -999 -999 -999 -999
2008-09-05 07:22:37 51°19.852 2°40.705 -999 -999 -999 -999 -999
2008-09-05 07:22:42 51°19.857 2°40.679 -999 -999 -999 -999 -999
2008-09-05 07:22:47 51°19.861 2°40.652 -999 -999 -999 -999 -999
2008-09-05 07:22:52 51°19.865 2°40.625 -999 -999 -999 -999 -999
2008-09-05 07:22:57 51°19.868 2°40.598 -999 -999 -999 -999 -999
2008-09-05 07:23:02 51°19.872 2°40.571 -999 -999 -999 -999 -999
2008-09-05 07:23:07 51°19.876 2°40.544 -999 -999 -999 -999 -999
2008-09-05 07:23:12 51°19.88 2°40.517 -999 -999 -999 -999 -999
2008-09-05 07:23:17 51°19.884 2°40.49 -999 -999 -999 -999 -999
2008-09-05 07:23:22 51°19.888 2°40.463 -999 -999 -999 -999 -999
2008-09-05 07:23:27 51°19.891 2°40.436 -999 -999 -999 -999 -999
2008-09-05 07:23:32 51°19.895 2°40.409 -999 -999 -999 -999 -999
2008-09-05 07:23:37 51°19.898 2°40.382 -999 -999 -999 -999 -999
2008-09-05 07:23:42 51°19.902 2°40.356 -999 -999 -999 -999 -999
2008-09-05 07:23:47 51°19.905 2°40.329 -999 -999 -999 -999 -999
2008-09-05 07:23:52 51°19.909 2°40.302 -999 -999 -999 -999 -999
2008-09-05 07:23:57 51°19.912 2°40.275 -999 -999 -999 -999 -999
2008-09-05 07:24:02 51°19.916 2°40.248 -999 -999 -999 -999 -999
2008-09-05 07:24:07 51°19.92 2°40.222 -999 -999 -999 -999 -999
2008-09-05 07:24:12 51°19.923 2°40.195 -999 -999 -999 -999 -999
2008-09-05 07:24:17 51°19.928 2°40.168 -999 -999 -999 -999 -999
2008-09-05 07:24:22 51°19.931 2°40.142 -999 -999 -999 -999 -999
2008-09-05 07:24:27 51°19.936 2°40.115 -999 -999 -999 -999 -999
2008-09-05 07:24:32 51°19.94 2°40.089 -999 -999 -999 -999 -999
2008-09-05 07:24:37 51°19.944 2°40.062 -999 -999 -999 -999 -999
2008-09-05 07:24:42 51°19.948 2°40.035 -999 -999 -999 -999 -999
2008-09-05 07:24:47 51°19.952 2°40.009 -999 -999 -999 -999 -999
2008-09-05 07:24:52 51°19.955 2°39.982 -999 -999 -999 -999 -999
2008-09-05 07:24:57 51°19.959 2°39.955 -999 -999 -999 -999 -999
2008-09-05 07:25:02 51°19.963 2°39.929 -999 -999 -999 -999 -999
2008-09-05 07:25:07 51°19.967 2°39.902 -999 -999 -999 -999 -999
2008-09-05 07:25:12 51°19.971 2°39.875 -999 -999 -999 -999 -999
2008-09-05 07:25:17 51°19.975 2°39.849 -999 -999 -999 -999 -999
2008-09-05 07:25:22 51°19.979 2°39.822 -999 -999 -999 -999 -999
2008-09-05 07:25:27 51°19.983 2°39.795 -999 -999 -999 -999 -999
2008-09-05 07:25:32 51°19.987 2°39.768 -999 -999 -999 -999 -999
2008-09-05 07:25:37 51°19.991 2°39.741 -999 -999 -999 -999 -999
2008-09-05 07:25:42 51°19.995 2°39.715 -999 -999 -999 -999 -999
2008-09-05 07:25:47 51°19.999 2°39.688 -999 -999 -999 -999 -999
2008-09-05 07:25:52 51°20.003 2°39.661 -999 -999 -999 -999 -999
2008-09-05 07:25:57 51°20.007 2°39.634 -999 -999 -999 -999 -999
2008-09-05 07:26:02 51°20.012 2°39.608 -999 -999 -999 -999 -999
2008-09-05 07:26:07 51°20.016 2°39.581 -999 -999 -999 -999 -999
2008-09-05 07:26:12 51°20.019 2°39.554 -999 -999 -999 -999 -999
2008-09-05 07:26:17 51°20.024 2°39.527 -999 -999 -999 -999 -999
2008-09-05 07:26:22 51°20.028 2°39.501 -999 -999 -999 -999 -999
2008-09-05 07:26:27 51°20.032 2°39.474 -999 -999 -999 -999 -999
2008-09-05 07:26:32 51°20.036 2°39.447 -999 -999 -999 -999 -999
2008-09-05 07:26:37 51°20.04 2°39.42 -999 -999 -999 -999 -999
2008-09-05 07:26:42 51°20.043 2°39.393 -999 -999 -999 -999 -999
2008-09-05 07:26:47 51°20.047 2°39.367 -999 -999 -999 -999 -999
2008-09-05 07:26:52 51°20.051 2°39.34 -999 -999 -999 -999 -999
2008-09-05 07:26:57 51°20.054 2°39.314 -999 -999 -999 -999 -999
2008-09-05 07:27:02 51°20.058 2°39.287 -999 -999 -999 -999 -999
2008-09-05 07:27:07 51°20.061 2°39.26 -999 -999 -999 -999 -999
2008-09-05 07:27:12 51°20.065 2°39.233 -999 -999 -999 -999 -999
2008-09-05 07:27:17 51°20.069 2°39.206 -999 -999 -999 -999 -999
2008-09-05 07:27:22 51°20.073 2°39.179 -999 -999 -999 -999 -999
2008-09-05 07:27:27 51°20.077 2°39.152 -999 -999 -999 -999 -999
2008-09-05 07:27:32 51°20.081 2°39.125 -999 -999 -999 -999 -999
2008-09-05 07:27:37 51°20.085 2°39.099 -999 -999 -999 -999 -999
2008-09-05 07:27:42 51°20.089 2°39.072 -999 -999 -999 -999 -999
2008-09-05 07:27:47 51°20.093 2°39.045 -999 -999 -999 -999 -999
2008-09-05 07:27:52 51°20.097 2°39.018 -999 -999 -999 -999 -999
2008-09-05 07:27:57 51°20.1 2°38.991 -999 -999 -999 -999 -999
2008-09-05 07:28:02 51°20.105 2°38.964 -999 -999 -999 -999 -999
2008-09-05 07:28:07 51°20.108 2°38.937 -999 -999 -999 -999 -999
2008-09-05 07:28:12 51°20.112 2°38.91 -999 -999 -999 -999 -999
2008-09-05 07:28:17 51°20.116 2°38.883 -999 -999 -999 -999 -999
2008-09-05 07:28:22 51°20.12 2°38.856 -999 -999 -999 -999 -999
2008-09-05 07:28:27 51°20.124 2°38.829 -999 -999 -999 -999 -999
2008-09-05 07:28:32 51°20.128 2°38.802 -999 -999 -999 -999 -999
2008-09-05 07:28:37 51°20.132 2°38.775 -999 -999 -999 -999 -999
2008-09-05 07:28:42 51°20.136 2°38.748 -999 -999 -999 -999 -999
2008-09-05 07:28:47 51°20.139 2°38.721 -999 -999 -999 -999 -999
2008-09-05 07:28:52 51°20.143 2°38.694 -999 -999 -999 -999 -999
2008-09-05 07:28:57 51°20.146 2°38.667 -999 -999 -999 -999 -999
2008-09-05 07:29:02 51°20.149 2°38.64 -999 -999 -999 -999 -999
2008-09-05 07:29:07 51°20.153 2°38.613 -999 -999 -999 -999 -999
2008-09-05 07:29:12 51°20.156 2°38.586 -999 -999 -999 -999 -999
2008-09-05 07:29:17 51°20.16 2°38.559 -999 -999 -999 -999 -999
2008-09-05 07:29:22 51°20.163 2°38.532 -999 -999 -999 -999 -999
2008-09-05 07:29:27 51°20.168 2°38.505 -999 -999 -999 -999 -999
2008-09-05 07:29:32 51°20.171 2°38.477 -999 -999 -999 -999 -999
2008-09-05 07:29:37 51°20.176 2°38.451 -999 -999 -999 -999 -999
2008-09-05 07:29:42 51°20.18 2°38.423 -999 -999 -999 -999 -999
2008-09-05 07:29:47 51°20.184 2°38.396 -999 -999 -999 -999 -999
2008-09-05 07:29:52 51°20.187 2°38.369 -999 -999 -999 -999 -999
2008-09-05 07:29:57 51°20.191 2°38.342 -999 -999 -999 -999 -999
2008-09-05 07:30:02 51°20.195 2°38.315 -999 -999 -999 -999 -999
2008-09-05 07:30:07 51°20.199 2°38.288 -999 -999 -999 -999 -999
2008-09-05 07:30:12 51°20.202 2°38.261 -999 -999 -999 -999 -999
2008-09-05 07:30:17 51°20.205 2°38.235 -999 -999 -999 -999 -999
2008-09-05 07:30:22 51°20.208 2°38.208 -999 -999 -999 -999 -999
2008-09-05 07:30:27 51°20.212 2°38.181 -999 -999 -999 -999 -999
2008-09-05 07:30:32 51°20.215 2°38.154 -999 -999 -999 -999 -999
2008-09-05 07:30:37 51°20.219 2°38.127 -999 -999 -999 -999 -999
2008-09-05 07:30:42 51°20.222 2°38.1 -999 -999 -999 -999 -999
2008-09-05 07:30:47 51°20.226 2°38.073 -999 -999 -999 -999 -999
2008-09-05 07:30:52 51°20.229 2°38.045 -999 -999 -999 -999 -999
2008-09-05 07:30:57 51°20.234 2°38.019 -999 -999 -999 -999 -999
2008-09-05 07:31:02 51°20.237 2°37.992 -999 -999 -999 -999 -999
2008-09-05 07:31:07 51°20.241 2°37.965 -999 -999 -999 -999 -999
2008-09-05 07:31:12 51°20.245 2°37.938 -999 -999 -999 -999 -999
2008-09-05 07:31:17 51°20.248 2°37.91 -999 -999 -999 -999 -999
2008-09-05 07:31:22 51°20.253 2°37.884 -999 -999 -999 -999 -999
2008-09-05 07:31:27 51°20.256 2°37.857 -999 -999 -999 -999 -999
2008-09-05 07:31:32 51°20.261 2°37.83 -999 -999 -999 -999 -999
2008-09-05 07:31:37 51°20.264 2°37.803 -999 -999 -999 -999 -999
2008-09-05 07:31:42 51°20.268 2°37.776 -999 -999 -999 -999 -999
2008-09-05 07:31:47 51°20.272 2°37.748 -999 -999 -999 -999 -999
2008-09-05 07:31:52 51°20.275 2°37.721 -999 -999 -999 -999 -999
2008-09-05 07:31:57 51°20.279 2°37.694 -999 -999 -999 -999 -999
2008-09-05 07:32:02 51°20.283 2°37.667 -999 -999 -999 -999 -999
2008-09-05 07:32:07 51°20.286 2°37.64 -999 -999 -999 -999 -999
2008-09-05 07:32:12 51°20.29 2°37.613 -999 -999 -999 -999 -999
2008-09-05 07:32:17 51°20.294 2°37.586 -999 -999 -999 -999 -999
2008-09-05 07:32:22 51°20.298 2°37.559 -999 -999 -999 -999 -999
2008-09-05 07:32:27 51°20.302 2°37.532 -999 -999 -999 -999 -999
2008-09-05 07:32:32 51°20.306 2°37.504 -999 -999 -999 -999 -999
2008-09-05 07:32:37 51°20.31 2°37.478 -999 -999 -999 -999 -999
2008-09-05 07:32:42 51°20.314 2°37.451 -999 -999 -999 -999 -999
2008-09-05 07:32:47 51°20.318 2°37.424 -999 -999 -999 -999 -999
2008-09-05 07:32:52 51°20.322 2°37.397 -999 -999 -999 -999 -999
2008-09-05 07:32:57 51°20.326 2°37.37 -999 -999 -999 -999 -999
2008-09-05 07:33:02 51°20.33 2°37.343 -999 -999 -999 -999 -999
2008-09-05 07:33:07 51°20.334 2°37.316 -999 -999 -999 -999 -999
2008-09-05 07:33:12 51°20.337 2°37.289 -999 -999 -999 -999 -999
2008-09-05 07:33:17 51°20.341 2°37.261 -999 -999 -999 -999 -999
2008-09-05 07:33:22 51°20.345 2°37.234 -999 -999 -999 -999 -999
2008-09-05 07:33:27 51°20.349 2°37.207 -999 -999 -999 -999 -999
2008-09-05 07:33:32 51°20.352 2°37.18 -999 -999 -999 -999 -999
2008-09-05 07:33:37 51°20.356 2°37.153 -999 -999 -999 -999 -999
2008-09-05 07:33:42 51°20.36 2°37.127 -999 -999 -999 -999 -999
2008-09-05 07:33:47 51°20.363 2°37.1 -999 -999 -999 -999 -999
2008-09-05 07:33:52 51°20.367 2°37.073 -999 -999 -999 -999 -999
2008-09-05 07:33:57 51°20.372 2°37.046 -999 -999 -999 -999 -999
2008-09-05 07:34:02 51°20.376 2°37.019 -999 -999 -999 -999 -999
2008-09-05 07:34:07 51°20.38 2°36.992 -999 -999 -999 -999 -999
2008-09-05 07:34:12 51°20.385 2°36.966 -999 -999 -999 -999 -999
2008-09-05 07:34:17 51°20.389 2°36.939 -999 -999 -999 -999 -999
2008-09-05 07:34:22 51°20.394 2°36.912 -999 -999 -999 -999 -999
2008-09-05 07:34:27 51°20.398 2°36.885 -999 -999 -999 -999 -999
2008-09-05 07:34:32 51°20.403 2°36.859 -999 -999 -999 -999 -999
2008-09-05 07:34:37 51°20.408 2°36.832 -999 -999 -999 -999 -999
2008-09-05 07:34:42 51°20.413 2°36.805 -999 -999 -999 -999 -999
2008-09-05 07:34:47 51°20.418 2°36.779 -999 -999 -999 -999 -999
2008-09-05 07:34:52 51°20.423 2°36.752 -999 -999 -999 -999 -999
2008-09-05 07:34:57 51°20.427 2°36.725 -999 -999 -999 -999 -999
2008-09-05 07:35:02 51°20.432 2°36.699 -999 -999 -999 -999 -999
2008-09-05 07:35:07 51°20.437 2°36.672 -999 -999 -999 -999 -999
2008-09-05 07:35:12 51°20.442 2°36.645 -999 -999 -999 -999 -999
2008-09-05 07:35:17 51°20.447 2°36.619 -999 -999 -999 -999 -999
2008-09-05 07:35:22 51°20.452 2°36.592 -999 -999 -999 -999 -999
2008-09-05 07:35:27 51°20.458 2°36.566 -999 -999 -999 -999 -999
2008-09-05 07:35:32 51°20.463 2°36.539 -999 -999 -999 -999 -999
2008-09-05 07:35:37 51°20.468 2°36.513 -999 -999 -999 -999 -999
2008-09-05 07:35:42 51°20.473 2°36.487 -999 -999 -999 -999 -999
2008-09-05 07:35:47 51°20.478 2°36.46 -999 -999 -999 -999 -999
2008-09-05 07:35:52 51°20.482 2°36.433 -999 -999 -999 -999 -999
2008-09-05 07:35:57 51°20.488 2°36.407 -999 -999 -999 -999 -999
2008-09-05 07:36:02 51°20.493 2°36.38 -999 -999 -999 -999 -999
2008-09-05 07:36:07 51°20.498 2°36.354 -999 -999 -999 -999 -999
2008-09-05 07:36:12 51°20.503 2°36.327 -999 -999 -999 -999 -999
2008-09-05 07:36:17 51°20.508 2°36.301 -999 -999 -999 -999 -999
2008-09-05 07:36:22 51°20.513 2°36.274 -999 -999 -999 -999 -999
2008-09-05 07:36:27 51°20.517 2°36.248 -999 -999 -999 -999 -999
2008-09-05 07:36:32 51°20.522 2°36.221 -999 -999 -999 -999 -999
2008-09-05 07:36:37 51°20.527 2°36.195 -999 -999 -999 -999 -999
2008-09-05 07:36:42 51°20.532 2°36.168 -999 -999 -999 -999 -999
2008-09-05 07:36:47 51°20.537 2°36.142 -999 -999 -999 -999 -999
2008-09-05 07:36:52 51°20.542 2°36.115 -999 -999 -999 -999 -999
2008-09-05 07:36:57 51°20.546 2°36.088 -999 -999 -999 -999 -999
2008-09-05 07:37:02 51°20.551 2°36.061 -999 -999 -999 -999 -999
2008-09-05 07:37:07 51°20.556 2°36.035 -999 -999 -999 -999 -999
2008-09-05 07:37:12 51°20.56 2°36.008 -999 -999 -999 -999 -999
2008-09-05 07:37:17 51°20.565 2°35.981 -999 -999 -999 -999 -999
2008-09-05 07:37:22 51°20.57 2°35.954 -999 -999 -999 -999 -999
2008-09-05 07:37:27 51°20.574 2°35.927 -999 -999 -999 -999 -999
2008-09-05 07:37:32 51°20.579 2°35.9 -999 -999 -999 -999 -999
2008-09-05 07:37:37 51°20.584 2°35.873 -999 -999 -999 -999 -999
2008-09-05 07:37:42 51°20.589 2°35.846 -999 -999 -999 -999 -999
2008-09-05 07:37:47 51°20.594 2°35.819 -999 -999 -999 -999 -999
2008-09-05 07:37:52 51°20.599 2°35.792 -999 -999 -999 -999 -999
2008-09-05 07:37:57 51°20.604 2°35.766 -999 -999 -999 -999 -999
2008-09-05 07:38:02 51°20.609 2°35.739 -999 -999 -999 -999 -999
2008-09-05 07:38:07 51°20.614 2°35.712 -999 -999 -999 -999 -999
2008-09-05 07:38:12 51°20.619 2°35.685 -999 -999 -999 -999 -999
2008-09-05 07:38:17 51°20.624 2°35.658 -999 -999 -999 -999 -999
2008-09-05 07:38:22 51°20.629 2°35.632 -999 -999 -999 -999 -999
2008-09-05 07:38:27 51°20.634 2°35.605 -999 -999 -999 -999 -999
2008-09-05 07:38:32 51°20.638 2°35.578 -999 -999 -999 -999 -999
2008-09-05 07:38:37 51°20.643 2°35.551 -999 -999 -999 -999 -999
2008-09-05 07:38:42 51°20.647 2°35.524 -999 -999 -999 -999 -999
2008-09-05 07:38:47 51°20.652 2°35.497 -999 -999 -999 -999 -999
2008-09-05 07:38:52 51°20.656 2°35.471 -999 -999 -999 -999 -999
2008-09-05 07:38:57 51°20.661 2°35.444 -999 -999 -999 -999 -999
2008-09-05 07:39:02 51°20.665 2°35.417 -999 -999 -999 -999 -999
2008-09-05 07:39:07 51°20.669 2°35.39 -999 -999 -999 -999 -999